CAPE
849 493 447 670 708 715 467 498 811 497 708 732 985 489 349 184 131 311 231 155 72 43 11 1 22 78 211 418 585 675 742 701 527 507 499 549 660 765
857 843 801 762 687 746 913 608 349 577 879 650 1058 742 774 605 312 485 386 135 88 61 1 1 0 13 77 158 366 527 639 710 613 411 380 389 445 572
1134 1156 978 971 839 737 807 733 578 389 763 1197 811 862 843 958 955 1023 693 426 328 54 23 3 0 0 4 27 45 73 243 432 447 446 371 331 327 373
1253 1002 1277 829 1052 930 847 885 668 587 920 1053 1056 928 1012 954 980 1021 873 651 503 276 36 18 1 0 0 0 0 0 0 57 126 163 254 319 317 279
814 1210 1422 913 1039 1027 793 1046 875 645 513 784 979 708 1048 948 970 811 880 1019 643 303 85 0 1 1 1 1 0 0 0 0 0 0 17 37 98 181
708 884 1110 1285 1133 1035 1032 1054 1066 837 481 533 776 999 907 978 1105 1289 1066 877 965 760 375 80 9 1 1 1 1 0 0 0 0 0 0 0 0 3
243 319 471 462 451 632 1377 1567 1161 1208 1070 664 926 1084 927 880 1286 1220 1444 1252 1016 947 913 530 98 19 87 5 12 1 1 0 0 0 0 0 0 0
235 178 43 120 236 221 379 436 809 1267 1077 889 1114 1357 1446 1288 1238 1263 1331 1219 1493 926 1039 913 427 214 217 150 119 55 1 0 0 0 0 0 0 0
18 0 0 0 99 186 201 140 155 185 380 1049 915 1124 1258 1218 1429 1243 1203 1242 1490 1114 1164 1161 555 682 670 542 75 12 1 0 0 0 0 0 0 0
0 0 0 0 0 2 254 466 788 1145 545 263 520 866 1416 1314 1413 1789 1596 1346 1256 1066 1090 1377 632 1101 1013 916 182 1 0 0 0 0 0 1 1 1
0 0 0 0 0 0 77 643 998 615 483 424 293 95 20 137 749 978 1062 1357 1554 1237 739 1277 1215 1069 896 1282 1095 12 0 0 0 0 0 1 1 1
0 0 0 0 0 0 76 805 373 247 451 141 196 295 353 366 222 794 1574 1791 1756 1265 809 1220 1317 1251 1526 875 902 775 152 1 1 1 1 1 1 3
0 0 0 0 0 0 0 722 1038 359 44 8 34 47 51 198 603 510 1140 1593 1859 1524 490 1420 1137 877 1206 884 633 566 359 4 3 3 1 0 1 1
0 136 189 9 112 0 1 9 114 13 49 11 15 60 56 38 12 166 465 898 1635 1770 913 1407 1392 867 968 558 660 352 477 327 125 38 1 1 1 1
0 141 112 88 15 0 1 1 1 2 182 274 218 187 81 132 126 124 300 584 696 1044 1132 701 777 257 689 845 662 260 309 259 172 87 3 4 4 1
10 18 1 0 1 0 1 9 4 6 84 346 421 566 383 273 178 521 900 649 768 825 467 663 551 329 369 574 439 326 224 101 14 2 20 9 5 1
0 2 2 7 0 3 3 2 104 58 267 386 416 588 781 921 937 834 1111 681 520 606 546 242 274 337 467 467 393 351 118 1 107 4 1 1 0 0
0 0 1 40 104 171 260 295 244 105 285 457 590 599 725 872 896 959 961 668 575 535 364 310 61 2 0 0 45 214 150 104 7 3 0 0 0 0
0 0 0 0 0 1 130 306 452 448 687 571 640 786 867 644 545 739 813 476 387 463 275 136 139 187 85 295 0 0 29 0 0 1 0 0 0 0
0 0 0 0 0 4 59 242 500 746 608 653 749 851 995 986 839 716 694 533 354 349 257 110 273 374 434 276 0 0 0 0 0 0 0 0 0 0
0 0 0 0 4 61 221 404 596 698 626 606 626 658 805 943 838 734 653 205 262 480 591 350 263 68 0 0 0 0 0 0 0 0 0 0 0 0
0 0 0 0 0 31 55 170 419 545 596 781 851 878 912 951 934 853 583 359 70 600 591 54 0 0 0 0 0 0 0 0 0 0 0 0 0 0
0 0 0 0 0 11 51 82 214 341 681 870 885 899 972 826 794 783 834 580 559 427 0 0 0 0 0 0 0 0 0 0 0 0 0 0 0 0
CIN
-79 -125 -103 -80 -73 -63 -72 -54 -6 -24 -19 -88 -55 -141 -161 -188 -217 -135 -118 -113 -112 -96 -72 -60 -35 -10 -6 -7 -5 -3 -5 -7 -16 -22 -28 -20 -9 -7
-123 -87 -86 -78 -85 -77 -52 -72 -86 -30 -4 -93 -64 -85 -94 -103 -165 -102 -97 -134 -135 -111 -15 -64 -16 -36 -11 -8 -6 -7 -8 -6 -9 -29 -41 -47 -31 -10
-121 -81 -81 -70 -82 -82 -69 -74 -79 -100 -36 -44 -97 -98 -97 -65 -51 -36 -59 -75 -72 -156 -142 -86 0 0 -82 -31 -35 -30 -13 -10 -13 -14 -28 -39 -44 -42
-90 -86 -55 -97 -91 -96 -95 -78 -84 -95 -54 -68 -70 -82 -77 -88 -65 -37 -51 -67 -61 -83 -155 -163 0 0 0 0 0 -5 -3 -45 -35 -41 -37 -30 -36 -49
-128 -60 -45 -81 -79 -75 -121 -90 -96 -114 -106 -56 -56 -127 -62 -66 -67 -85 -62 -32 -66 -130 -175 0 0 0 0 -86 0 0 0 0 0 0 -96 -120 -99 -67
-145 -114 -74 -41 -55 -104 -88 -81 -75 -83 -119 -82 -53 -80 -85 -52 -38 -28 -44 -71 -47 -68 -121 -211 -176 0 0 0 0 0 0 0 0 0 0 0 0 -74
-309 -239 -186 -175 -168 -137 -61 -45 -66 -58 -59 -102 -68 -54 -91 -85 -34 -47 -15 -26 -70 -88 -65 -130 -233 -263 -201 -258 -164 0 0 0 0 0 0 0 0 0
-375 -394 -483 -413 -326 -300 -224 -192 -92 -48 -84 -95 -88 -33 -58 -73 -66 -47 -25 -19 -8 -132 -73 -94 -200 -245 -200 -186 -185 -285 -33 0 0 0 0 0 0 0
-393 0 0 0 -373 -272 -239 -298 -301 -333 -201 -72 -57 -43 -76 -110 -71 -74 -64 -39 -32 -86 -61 -68 -200 -180 -164 -161 -354 -435 0 0 0 0 0 0 0 0
0 0 0 0 0 -40 -192 -200 -171 -117 -209 -226 -76 -36 -63 -117 -106 -68 -64 -44 -47 -101 -90 -51 -208 -122 -138 -124 -307 -93 0 0 0 0 0 0 0 0
0 0 0 0 0 0 -335 -173 -146 -181 -211 -228 -201 -300 -447 -336 -133 -97 -117 -54 -17 -49 -141 -39 -94 -105 -164 -117 -130 -207 0 0 0 0 0 0 0 0
0 0 0 0 0 0 -418 -145 -236 -226 -158 -260 -314 -213 -198 -203 -302 -101 -1 -1 -15 -62 -137 -32 -31 -43 -32 -153 -161 -170 -292 0 0 0 0 0 0 0
0 0 0 0 0 0 0 -183 -126 -257 -342 -486 -434 -412 -354 -279 -165 -187 -61 -11 0 -16 -204 -39 -39 -61 -53 -82 -141 -169 -185 0 0 0 0 0 0 0
0 -397 -413 -412 -337 0 0 -140 -407 -277 -390 -437 -425 -341 -270 -319 -425 -317 -169 -84 -20 -4 -75 -17 -21 -77 -55 -103 -74 -140 -92 -86 -93 -94 0 0 0 0
0 -362 -364 -368 -401 0 0 0 0 0 -285 -241 -263 -270 -328 -269 -288 -286 -190 -98 -79 -52 -48 -102 -90 -225 -99 -61 -56 -119 -60 -42 -30 -33 0 0 0 0
-43 -117 0 0 0 0 0 -43 -56 -54 -311 -210 -205 -153 -187 -221 -235 -70 -15 -40 -44 -63 -166 -107 -122 -164 -153 -79 -74 -76 -51 -48 -40 0 -35 -123 0 0
0 0 0 -157 0 0 0 0 -288 -321 -232 -235 -218 -166 -127 -92 -91 -71 -18 -29 -42 -47 -96 -189 -146 -117 -70 -68 -68 -47 -85 0 -9 0 0 0 0 0
0 0 0 -216 -205 -174 -127 -162 -181 -224 -213 -191 -174 -155 -122 -105 -101 -73 -47 -51 -39 -40 -67 -110 -212 0 0 0 -5 -53 -50 -43 0 0 0 0 0 0
0 0 0 0 0 -8 -126 -77 -78 -130 -126 -132 -131 -120 -109 -126 -147 -102 -77 -91 -89 -51 -84 -143 -132 -89 -144 -64 0 0 -107 0 0 0 0 0 0 0
0 0 0 0 0 -40 -156 -83 -74 -78 -98 -104 -95 -92 -84 -84 -88 -107 -91 -94 -99 -78 -100 -175 -87 -67 -51 -64 0 0 0 0 0 0 0 0 0 0
0 0 0 0 -28 -138 -77 -55 -52 -52 -77 -88 -89 -92 -84 -62 -73 -97 -88 -154 -114 -61 -33 -83 -104 -55 0 0 0 0 0 0 0 0 0 0 0 0
0 0 0 0 0 -89 -105 -86 -58 -57 -61 -51 -58 -71 -74 -56 -54 -74 -92 -118 -196 -57 -47 -16 0 0 0 0 0 0 0 0 0 0 0 0 0 0
0 0 0 0 -4 -113 -119 -131 -108 -103 -75 -64 -66 -69 -59 -61 -62 -47 -40 -67 -66 -62 0 0 0 0 0 0 0 0 0 0 0 0 0 0 0 0
Wind_Speed
8 8 7 6 6 6 6 6 4 3 4 2 3 4 5 6 9 9 10 14 19 19 19 18 18 20 20 19 20 18 18 19 19 18 17 17 18 18
6 7 7 6 7 7 7 6 7 5 5 4 4 3 4 5 8 10 11 13 18 19 19 19 18 19 21 20 18 18 16 17 16 18 18 18 18 17
5 7 7 8 6 5 5 6 7 6 7 3 4 2 3 6 5 8 8 8 7 17 17 19 20 20 21 20 19 18 18 18 18 17 19 19 18 19
3 4 9 5 9 7 6 8 7 8 6 10 3 5 6 5 4 6 6 6 7 10 14 15 18 20 20 17 18 18 18 18 18 18 19 19 19 19
3 6 8 6 7 6 7 6 6 6 6 4 7 3 4 3 4 3 4 6 6 10 11 12 15 17 16 15 17 17 17 16 18 17 17 18 19 19
5 8 7 8 9 8 6 7 6 6 5 4 6 5 4 4 3 3 4 5 6 7 9 10 11 15 17 16 16 17 18 18 18 18 18 19 19 20
7 7 8 9 12 10 6 7 7 6 5 4 7 4 4 4 5 4 5 4 6 7 6 7 6 6 9 13 16 22 22 20 19 19 19 18 19 18
9 8 8 12 9 10 11 12 10 7 7 4 5 7 8 6 5 6 5 4 4 5 7 5 8 8 9 8 16 17 17 19 20 21 21 20 21 21
7 6 8 7 7 7 7 9 13 14 16 4 5 11 7 9 7 6 7 5 4 4 5 3 6 8 8 10 16 19 21 21 22 21 20 20 21 20
7 7 6 9 8 6 7 8 8 6 8 6 4 17 13 7 10 8 8 6 3 3 5 5 5 6 6 8 15 19 20 21 20 20 19 17 17 17
6 6 6 8 9 5 6 8 8 6 6 9 13 16 8 9 3 3 5 6 6 4 7 4 3 3 4 6 7 17 17 17 17 17 17 17 16 13
6 8 12 12 12 6 5 6 7 9 6 6 5 4 5 7 7 7 4 7 5 3 5 6 3 4 3 2 2 5 5 9 11 13 14 13 13 7
6 6 6 12 14 10 10 7 9 1 4 6 3 5 5 5 4 7 9 8 7 7 5 7 5 3 2 2 2 3 5 3 3 3 7 8 11 10
8 7 5 12 13 11 8 12 12 4 2 2 2 6 7 5 4 5 8 9 9 11 6 9 3 5 5 3 3 2 4 4 4 4 4 4 6 8
8 9 8 9 11 9 13 11 5 4 5 5 7 7 7 6 3 3 6 9 9 10 8 11 6 4 4 3 3 3 3 4 5 4 5 4 5 4
8 7 7 10 8 9 8 7 8 8 8 8 7 5 5 5 5 5 4 5 5 5 8 10 9 6 4 5 4 3 5 3 4 4 2 2 1 2
5 4 6 5 6 5 6 7 7 8 8 8 7 7 6 5 5 4 4 3 4 2 3 3 5 6 3 5 4 6 5 4 4 4 3 3 2 2
4 6 7 8 8 8 8 8 8 10 10 8 8 7 7 6 4 4 5 5 6 5 4 4 5 4 2 1 2 4 5 5 5 6 6 5 4 3
6 8 8 9 9 9 9 9 9 9 10 9 8 8 7 6 6 5 4 4 5 6 5 5 9 7 8 8 3 7 5 5 7 7 5 3 5 5
7 10 10 10 9 9 9 9 9 8 7 8 9 8 7 7 6 6 6 6 6 6 5 5 7 10 8 8 6 3 8 7 7 7 4 3 6 8
10 10 10 10 10 9 10 9 10 9 8 7 8 8 7 7 8 7 6 8 8 7 8 9 7 4 4 7 5 4 3 11 3 6 7 5 3 3
10 10 9 9 9 9 9 9 8 8 8 7 8 8 7 8 8 8 8 8 8 8 6 4 5 6 4 5 7 7 5 4 11 17 12 4 5 6
10 9 8 9 8 9 8 8 8 8 8 8 7 7 7 8 8 8 8 9 8 8 6 6 6 3 2 1 6 6 8 9 5 6 5 12 8 10
Wind_Direction
237 222 223 231 217 216 220 214 215 290 283 271 264 195 197 200 207 204 211 213 217 221 218 216 210 209 210 208 209 217 211 209 206 211 215 221 223 224
203 220 221 231 224 218 218 219 211 216 261 211 231 226 198 208 205 205 210 206 213 221 216 211 212 210 208 209 208 209 213 214 209 209 212 214 219 224
200 218 233 233 236 225 222 219 219 204 233 266 241 225 224 237 213 207 199 202 205 214 215 214 216 215 215 214 213 214 216 217 214 211 213 216 217 220
255 245 257 244 238 232 216 225 221 211 204 252 245 236 215 215 226 218 202 204 211 204 211 213 214 212 211 207 213 215 218 217 214 212 214 216 220 222
281 269 273 263 267 262 231 225 222 215 209 242 261 229 231 208 202 210 210 201 210 216 218 206 206 205 199 210 210 209 212 214 215 214 212 215 219 222
273 269 270 261 259 263 257 245 229 219 193 188 271 248 215 215 217 201 220 211 209 209 204 208 206 206 206 210 211 213 215 216 216 215 215 216 216 221
241 248 263 255 249 253 258 259 240 231 198 186 233 237 217 186 205 190 222 212 220 201 204 199 195 208 215 225 230 222 217 214 215 217 218 219 221 221
290 299 283 281 274 265 245 245 246 247 241 203 223 229 223 214 196 201 199 200 228 183 193 223 190 199 206 204 223 230 225 221 220 219 220 222 224 227
257 275 295 298 285 282 264 239 237 227 234 242 250 262 238 211 185 197 202 199 214 171 192 212 189 219 206 211 212 215 221 220 220 221 223 223 225 226
243 245 264 280 277 286 295 302 296 254 206 190 231 264 242 218 196 192 188 202 245 190 190 219 177 222 192 216 210 216 220 222 221 223 225 223 223 223
231 238 252 275 274 211 277 288 276 255 205 196 187 262 291 298 260 142 186 171 220 227 197 238 193 247 201 205 205 206 212 216 221 225 227 222 219 214
246 250 244 248 266 234 251 265 280 288 319 271 48 282 262 227 199 228 240 226 211 201 195 197 195 194 231 263 194 169 190 205 219 226 229 225 210 213
252 254 235 227 250 247 233 239 243 219 287 321 327 293 281 251 224 217 224 223 229 242 197 182 180 215 233 189 229 165 158 144 184 208 224 221 200 199
266 268 247 214 245 246 229 241 248 269 279 298 276 267 271 266 249 240 236 231 228 239 170 197 214 180 196 181 223 182 184 172 178 171 156 134 171 205
261 266 280 230 243 262 230 235 226 230 236 220 237 238 233 250 284 262 255 250 241 237 223 198 209 170 193 206 197 192 166 202 194 175 175 173 162 162
261 270 262 259 247 261 267 244 228 226 216 224 229 224 204 196 206 233 234 234 247 250 225 213 209 174 179 218 202 187 199 210 184 197 186 97 141 176
326 285 278 251 261 242 240 239 239 237 228 230 226 236 236 214 205 199 232 213 229 243 250 180 197 196 176 171 195 213 185 187 185 142 112 105 45 10
251 254 249 247 246 243 234 235 225 224 226 216 215 216 232 234 223 209 209 211 228 231 220 186 156 145 127 127 13 187 181 169 157 147 138 129 105 47
235 247 246 241 240 238 237 235 233 221 218 213 215 213 213 222 211 227 229 218 233 231 200 180 191 191 182 191 149 31 178 163 153 150 143 124 142 140
234 241 242 241 239 238 239 236 233 228 214 218 216 214 214 219 217 218 220 228 223 225 201 189 200 200 201 191 156 135 13 162 165 145 123 92 81 88
237 233 234 238 237 238 242 242 240 233 220 215 220 218 221 217 222 218 227 229 216 209 208 200 209 164 119 112 123 138 81 17 113 152 143 119 117 140
245 237 235 234 236 236 235 233 235 229 223 218 222 224 225 218 222 215 210 218 218 220 206 163 149 146 151 180 157 140 128 92 65 73 53 78 166 168
240 237 238 234 233 233 229 224 224 230 225 228 224 224 219 224 228 237 229 216 209 198 167 159 153 137 95 146 138 138 135 134 131 117 72 22 67 86